Flag for Germany Weather past 2 weeks in Laatzen, Lower Saxony, Germany

Now
67 °F

Passing clouds.


Feels Like: 67 °F
Forecast: 62 / 74 °F
Wind: 2 mph from Northeast

Location: Hannover

Current Time: Jul 29, 2014 at 2:42:49 AM

Latest Report: Jul 29, 2014 at 2:00 AM


Visibility: 13 mi

Pressure: 29.86 "Hg

Humidity: 90%

Dew point: 64 °F

Location of LaatzenLocation

Historic Weather in Laatzen — Graph

°F

Laatzen temperature yesterday

Maximum temperature yesterday: 82 °F (at 6:00 PM)
Minimum temperature yesterday: 59 °F (at 6:00 AM)
Average temperature yesterday: 70 °F

Past Weeks' High & Low Weather Summary

 TemperatureHumidityPressure
High91 °F (Jul 19, 4:00 PM)100% (Jul 16, 6:00 AM)30.20 "Hg (Jul 16, 6:00 AM)
Low54 °F (Jul 17, 5:00 AM)25% (Jul 19, 4:00 PM)29.72 "Hg (Jul 14, 1:00 AM)
Average70 °F74%30.00 "Hg
* Reported Jul 14 1:00 AM — Jul 29 1:00 AM, Laatzen, Weather by CustomWeather, © 2014

Note: Actual official high and low records may vary slightly from our data, if they occured in-between our weather recording intervals... More about our weather records

Advertising

Laatzen weather history for previous 24 hours

 ConditionsComfort  
Time TempWeatherWind HumidityBarometerVisibility
1:00 AM
Jul 29
68 °FPassing clouds.2 mph87%29.86 "Hg14 mi
12:00 AM69 °FPassing clouds.2 mph86%29.86 "Hg16 mi
10:00 PM
Jul 28
72 °FOvercast.1 mph79%29.87 "Hg16 mi
9:00 PM74 °FOvercast.2 mph74%29.85 "Hg22 mi
8:00 PM78 °FOvercast.3 mph66%29.85 "Hg19 mi
7:00 PM80 °FPartly sunny.6 mph58%29.84 "Hg19 mi
6:00 PM82 °FPassing clouds.5 mph58%29.84 "Hg19 mi
4:00 PM82 °FPassing clouds.5 mph58%29.87 "Hg17 mi
3:00 PM80 °FPassing clouds.3 mph61%29.89 "Hg16 mi
2:00 PM78 °FPassing clouds.2 mph62%29.90 "Hg12 mi
1:00 PM77 °FPassing clouds.3 mph65%29.92 "Hg12 mi
12:00 PM74 °FScattered clouds.2 mph72%29.93 "Hg12 mi
11:00 AM70 °FPartly sunny.2 mph93%29.94 "Hg9 mi
10:00 AM64 °FFog.1 mph100%29.96 "Hg2 mi
9:00 AM63 °FFog.2 mph100%29.96 "Hg1 mi
8:00 AM62 °FFog.1 mph100%29.97 "Hg0 mi
7:00 AM62 °FFog.2 mph100%29.96 "Hg0 mi
6:00 AM59 °FFog.1 mph100%29.96 "Hg3 mi
4:00 AM61 °FFog.1 mph100%29.96 "Hg8 mi
3:00 AM61 °FFog.1 mph98%29.97 "Hg8 mi
2:00 AM62 °FPassing clouds.2 mph98%29.97 "Hg19 mi
Weather by CustomWeather, © 2014

See weather overviewHow to use our weather pages